Hovedside
METAR-TAF:

METAR-TAF

Lufthavner :

Sogndal lufthamn. Haukåsen

Sogndal, Norge

breddegrad: 61-09N, lengdegrad: 007-08E, høyde over havet: 49 m

Gjeldene værobservasjon

Denne rapporten ble laget for 2 timer og 51 minutter siden, klokken 12:50 UTC
Vind 5 kt fra Øst-nordøst
Temperatur 11°C
Luftfuktighet 43%
Trykk 1032 hPa
Sikt 10 km eller mer
Få skyer i en høyde av 5000 ft
Brutte skyer i en høyde av 10000 ft

METAR: ENSG 201250Z 07005KT 9999 FEW050 BKN100 11/M01 Q1032 RMK WIND 3806FT 22011KT

Tid: 17:41 (15:41 UTC)


TAF: fraværende

Værobservasjoner og værvarsel for over 4000 flyplasser (METAR- og TAF-rapporter).

Tilgjengelige stasjoner er representert av de røde og gule prikkene på kartet.

Hold musepekeren over prikken for å se navnet på stasjonen.

Klikk så for å se værobservasjoner og -varsler.

For å forandre kartet kan du klikke på den grønne knappen med svart kryss for å zoome inn, på den grønne knappen med strek for å zoome ut, eller på de grønne pilene for å se tilstøtende kart.


METAR-TAF: